Wetbulb
48.90 49.11 49.66 48.21 49.54 49.88 49.90 49.77 49.71 50.62 52.39 53.26 52.57 51.86 49.80 47.36 46.09 45.25 44.32 43.82 42.98 42.89
48.33 48.81 48.99 47.87 48.30 49.90 49.83 49.10 48.61 49.92 50.23 50.86 49.97 50.21 49.45 47.89 45.59 44.94 43.95 43.48 42.56 42.25
47.66 48.35 49.13 47.73 47.85 47.29 48.62 47.64 46.56 48.07 48.79 48.76 48.69 48.41 47.49 46.14 45.27 44.18 43.99 43.85 41.97 41.10
45.49 46.42 46.92 47.69 47.91 46.74 45.82 47.22 46.13 45.15 46.47 46.70 46.36 46.14 46.36 46.23 44.83 43.18 43.12 42.86 41.99 41.23
44.50 44.86 44.90 45.68 45.52 45.04 45.59 44.40 45.43 44.34 43.57 44.43 44.97 44.40 45.04 43.79 43.66 42.37 41.38 40.79 39.78 39.69
43.52 43.36 44.29 44.57 43.96 43.97 43.61 42.67 40.49 40.24 40.61 38.92 39.49 40.50 42.45 43.20 41.45 41.14 41.26 40.45 38.69 37.21
42.94 43.27 43.97 43.16 43.02 42.69 42.03 40.71 38.52 37.40 37.99 35.97 34.50 36.74 37.76 38.72 39.14 38.91 39.48 38.36 37.49 34.68
41.91 41.48 41.71 40.56 39.58 39.09 38.63 39.14 36.97 35.18 34.04 33.43 33.29 34.87 34.75 34.69 36.05 35.83 35.37 33.33 33.62 32.51
39.33 37.50 37.23 37.05 37.09 36.59 35.98 34.69 33.54 32.68 32.34 31.13 33.80 36.67 36.72 34.40 32.76 32.66 31.89 30.41 30.03 29.98
34.77 34.81 35.83 35.53 35.22 34.90 34.10 32.47 32.12 31.36 30.49 30.05 30.77 35.19 36.41 35.74 30.87 31.17 31.09 29.77 28.80 28.89
31.80 31.16 30.28 30.49 31.80 32.66 31.43 29.63 29.13 27.56 27.71 27.76 29.15 34.42 35.61 35.08 29.90 30.00 30.11 29.41 29.43 29.19
31.38 28.55 28.43 27.50 27.43 27.66 26.31 25.11 24.59 26.30 26.30 29.73 29.05 34.10 34.88 33.74 29.24 28.81 28.15 28.88 29.40 29.53
28.36 25.50 25.09 26.79 25.22 24.52 23.71 25.68 28.32 29.04 29.63 29.15 29.31 33.72 34.43 31.45 28.62 27.10 27.07 28.13 29.09 30.13
26.16 24.19 24.68 23.23 22.96 21.52 25.03 28.03 27.69 27.42 27.44 28.02 28.89 31.08 34.44 31.72 28.66 27.36 26.96 27.23 28.08 30.25
MSLP
1016.11 1016.55 1016.83 1017.06 1017.34 1017.71 1017.89 1018.02 1018.26 1018.82 1018.97 1018.99 1019.30 1019.60 1019.92 1020.47 1020.82 1021.33 1021.91 1022.45 1022.72 1023.04
1015.51 1015.79 1015.99 1016.18 1016.44 1016.67 1016.99 1017.33 1017.62 1017.90 1018.42 1018.53 1018.65 1018.88 1019.15 1019.68 1020.18 1020.55 1021.08 1021.46 1021.82 1022.34
1014.86 1014.96 1015.10 1015.32 1015.48 1015.70 1015.92 1016.30 1016.77 1017.30 1017.74 1018.00 1018.17 1018.29 1018.61 1018.93 1019.38 1019.75 1020.11 1020.54 1020.93 1021.32
1014.29 1014.29 1014.43 1014.59 1014.66 1014.95 1015.35 1015.63 1015.93 1016.33 1016.87 1017.12 1017.35 1017.62 1017.95 1018.16 1018.54 1018.84 1019.36 1019.60 1020.14 1020.33
1013.98 1013.97 1014.02 1014.04 1014.09 1014.37 1014.58 1014.91 1015.22 1015.61 1016.14 1016.52 1016.69 1016.92 1017.19 1017.50 1017.75 1018.14 1018.55 1018.86 1019.43 1019.63
1013.54 1013.63 1013.66 1013.63 1013.66 1013.90 1014.17 1014.50 1014.87 1015.35 1015.78 1016.14 1016.38 1016.64 1016.81 1016.95 1017.18 1017.42 1017.71 1018.09 1018.41 1018.82
1012.82 1012.74 1012.72 1012.92 1013.13 1013.30 1013.60 1013.95 1014.45 1014.74 1015.04 1015.51 1015.95 1016.16 1016.34 1016.72 1016.92 1017.12 1017.22 1017.37 1017.76 1018.12
1012.21 1012.28 1012.45 1012.65 1012.77 1012.93 1013.13 1013.30 1013.86 1014.45 1014.83 1015.12 1015.54 1015.81 1016.20 1016.34 1016.67 1016.94 1017.10 1017.38 1017.64 1018.00
1012.10 1012.25 1012.34 1012.35 1012.50 1012.74 1013.16 1013.44 1013.74 1014.10 1014.47 1014.96 1014.98 1015.21 1015.56 1015.97 1016.34 1016.58 1016.98 1017.43 1017.85 1018.21
1012.15 1012.32 1012.37 1012.23 1012.33 1012.54 1012.89 1013.30 1013.72 1014.24 1014.62 1014.77 1014.81 1014.89 1015.14 1015.68 1015.96 1016.28 1016.67 1017.08 1017.57 1018.22
1011.95 1012.11 1012.42 1012.70 1012.73 1012.89 1012.94 1013.26 1013.72 1014.13 1014.40 1014.77 1014.86 1014.87 1015.03 1015.45 1015.81 1016.10 1016.35 1016.70 1017.09 1017.69
1012.36 1012.14 1012.22 1012.55 1012.84 1013.16 1013.45 1013.65 1013.88 1013.99 1014.39 1014.62 1014.72 1014.64 1014.98 1015.46 1015.83 1016.15 1016.50 1016.90 1017.40 1017.87
1012.44 1012.61 1012.74 1012.73 1013.02 1013.12 1013.24 1013.52 1013.70 1014.06 1014.36 1014.50 1014.75 1014.91 1015.09 1015.75 1015.99 1016.46 1016.89 1017.37 1017.78 1018.20
1012.92 1012.71 1012.67 1013.12 1013.48 1013.61 1013.68 1013.92 1014.12 1014.35 1014.76 1014.80 1014.83 1014.91 1015.27 1016.00 1016.42 1016.84 1017.34 1017.67 1018.12 1018.35
Wind_Speed
8 6 8 9 8 8 9 9 10 11 14 14 11 11 12 10 11 13 12 14 13 8
8 9 9 9 7 8 9 7 9 12 13 14 11 12 13 10 13 12 12 13 11 10
10 10 10 8 11 9 9 9 10 12 12 12 12 12 12 10 10 12 11 11 13 12
8 9 8 10 10 8 7 10 11 12 14 13 13 11 12 12 12 14 13 11 13 15
8 7 8 9 8 7 9 8 10 11 11 12 12 12 14 13 12 14 13 13 12 13
9 8 10 9 7 7 7 7 7 8 10 9 10 10 12 12 11 12 13 13 13 12
11 10 9 7 7 7 7 7 7 7 8 8 7 9 8 9 9 10 10 10 12 11
8 7 7 7 7 7 7 7 7 7 6 6 7 7 9 8 9 9 8 6 7 9
6 6 7 7 7 6 6 6 6 7 7 7 6 11 14 9 7 7 8 7 5 5
5 6 7 6 6 6 6 5 6 6 5 6 6 11 13 13 5 7 7 8 9 8
4 4 3 3 4 3 3 5 4 4 4 3 4 10 12 12 5 5 6 9 10 11
4 3 3 4 3 2 3 3 3 3 4 5 4 12 12 11 5 5 6 6 7 8
3 3 3 3 3 2 3 3 3 3 2 3 3 10 12 9 4 5 5 5 5 9
2 2 4 3 2 2 4 4 4 4 3 3 2 4 11 10 4 4 4 4 5 4
Wind_Direction
195 197 207 199 195 205 210 209 198 213 228 222 207 205 196 195 202 200 207 210 214 213
208 209 209 204 202 203 207 202 200 202 215 222 206 202 196 197 201 199 200 204 202 209
218 219 220 201 212 204 201 190 189 200 207 212 214 204 197 198 201 196 203 206 204 203
228 223 218 221 221 211 196 195 195 193 201 205 206 205 204 204 200 202 204 201 206 208
236 229 228 230 225 201 211 202 198 191 198 205 205 201 206 204 201 202 203 202 199 210
236 223 236 242 225 212 210 206 191 185 198 198 199 200 212 211 205 205 207 203 202 197
235 224 226 226 222 213 204 200 199 195 195 194 194 204 203 208 209 211 210 203 202 190
237 223 222 228 225 221 210 200 192 192 195 190 191 206 206 202 208 211 206 197 192 188
238 229 228 228 223 218 223 204 185 193 192 198 208 214 208 194 197 198 190 182 162 155
248 237 237 230 214 213 204 174 197 204 195 212 211 205 204 199 186 184 186 171 162 164
257 239 249 221 216 204 172 175 170 179 184 180 210 199 203 189 180 179 178 177 173 172
259 236 194 191 189 157 132 136 163 169 171 192 192 193 200 183 162 156 153 156 163 162
234 222 226 190 161 154 134 154 132 122 149 157 165 195 195 161 128 125 123 106 114 148
346 169 162 126 51 96 82 95 97 101 71 90 145 177 190 147 90 119 128 141 151 163